SCP
0 0 0 0 0 0 0 0 0 0 0 0 0 0 0 0 0 0 0 0 0 0 0 0 0 0 0 0 0 0 0 0 0 0 0 0 0 0 0 0 0 0 0 0
0 0 0 0 0 0 0 0 0 0 0 0 0 0 0 0 0 0 0 0 0 0 0 0 0 0 0 0 0 0 0 0 0 0 0 0 0 0 0 0 0 0 0 0
0 0 0 0 0 0 0 0 0 0 0 0 0 0 0 0 0 0 0 0 0 0 0 0 0 0 0 0 0 0 0 0 0 0 0 0 0 0 0 0 0 0 0 0
0 0 0 0 0 0 0 0 0 0 0 0 0 0 0 0 0 0 0 0 0 0 0 0 0 0 0 0 0 0 0 0 0 0 0 0 0 0 0 0 0 0 0 0
0 0 0 0 0 0 0 0 0 0 0 0 0 0 0 0 0 0 0 0 0 0 0 0 0 0 0 0 0 0 0 0 0 0 0 0 0 0 0 0 0 0 0 0
0 0 0 0 0 0 0 0 0 0 0 0 0 0 0 0 0 0 0 0 0 0 0 0 0 0 0 0 0 0 0 0 0 0 0 0 0 0 0 0 0 0 0 0
0 0 0 0 0 0 0 0 0 0 0 0 0 0 0 0 0 0 0 0 0 0 0 0 0 0 0 0 0 0 0 0 0 0 0 0 0 0 0 0 0 0 0 0
0 0 0 0 0 0 0 0 0 0 0 0 0 0 0 0 0 0 0 0 0 0 0 0 0 0 0 0 0 0 0 0 0 0 0 0 0 0 0 0 0 0 0 0
0 0 0 0 0 0 0 0 0 0 0 0 0 0 0 0 0 0 0 0 0 0 0 0 0 0 0 0 0 0 0 0 0 0 0 0 0 0 0 0 0 0 0 0
0 0 0 0 0 0 0 0 0 0 0 0 0 0 0 0 0 0 0 0 0 0 0 0 0 0 0 0 0 0 0 0 0 0 0 0 0 0 0 0 0 0 0 0
0 0 0 0 0 0 0 0 0 0 0 0 0 0 0 0 0 0 0 0 0 0 0 0 0 0 0 0 0 0 0 0 0 0 0 0 0 0 0 0 0 0 0 0
0 0 0 0 -0 0 0 0 0 0 0 0 0 0 0 0 0 0 0 0 0 0 0 0 0 0 0 0 0 0 0 0 0 0 0 0 0 0 0 0 0 0 0 0
0 0 0 0 0 0 0 0 0 0 0 0 0 0 0 0 0 0 0 0 0 0 0 0 0 0 0 0 0 0 0 0 0 0 0 0 0 0 0 0 0 0 0 0
0 0 0 0 0 0 0 0 0 0 0 0 0 0 0 0 0 0 0 0 0 0 0 0 0 0 0 0 0 0 0 0 0 0 0 0 0 0 0 0 0 0 0 0
0 0 0 0 0 0 0 0 0 0 0 0 0 0 0 0 0 0 0 0 0 0 0 0 0 0 0 0 0 0 0 0 0 0 0 0 0 0 0 0 0 0 0 0
0 0 0 0 0 0 0 0 0 0 0 0 0 0 0 0 0 0 0 0 0 0 0 0 0 0 0 0 0 0 0 0 0 0 0 0 0 0 0 0 0 0 0 0
0 0 0 0 0 0 0 0 0 0 0 0 0 0 0 0 0 0 0 0 0 0 0 0 0 0 0 0 0 0 0 0 0 0 0 0 0 0 0 0 0 0 0 0
0 0 0 0 0 0 0 0 0 0 0 0 0 0 0 0 0 0 0 0 0 0 0 0 0 0 0 0 0 0 0 0 0 0 0 0 0 0 0 0 0 0 0 0
0 0 0 0 0 0 0 0 0 0 0 0 0 0 0 0 0 0 0 0 0 0 0 0 0 0 0 0 0 0 0 0 0 0 0 0 0 0 0 0 0 0 0 0
0 0 0 0 0 0 0 0 0 0 0 0 0 0 0 0 0 0 0 0 0 0 0 0 0 0 0 0 0 0 0 0 0 0 0 0 0 0 0 0 0 0 0 0
0 0 0 0 0 0 0 0 0 0 0 0 0 0 0 0 0 0 0 0 0 0 0 0 0 0 0 0 0 0 0 0 0 0 0 0 0 0 0 0 0 0 0 0
0 0 0 0 0 0 0 0 0 0 0 0 0 0 0 0 0 0 0 0 0 0 0 0 0 0 0 0 0 0 0 0 0 0 0 0 0 0 0 0 0 0 0 0
0 0 0 0 0 0 0 0 0 0 0 0 0 0 0 0 0 0 0 0 0 0 0 0 0 0 0 0 0 0 0 0 0 0 0 0 0 0 0 0 0 0 0 0
0 0 0 0 0 0 0 0 0 0 0 0 0 0 0 0 0 0 0 0 0 0 0 0 0 0 0 0 0 0 0 0 0 0 0 0 0 0 0 0 -0 -0 0 0
0 0 0 0 0 0 0 0 0 0 0 0 0 0 0 0 0 0 0 0 0 0 0 0 0 0 0 0 0 0 0 0 0 0 0 0 0 0 0 0 -0 0 0 0
0 0 0 0 0 0 0 0 0 0 0 0 0 0 0 0 0 0 0 0 0 0 0 0 0 0 0 0 0 0 0 0 0 0 0 0 0 0 0 0 -0 -0 -0 -0
0 0 0 0 0 0 0 0 0 0 0 0 0 0 0 0 0 0 0 0 0 0 0 0 0 0 0 0 0 0 0 0 0 0 0 0 0 0 -0 -0 -0 -0 -0 -0
Wind_Speed_500mb
52 29 15 12 35 43 51 62 32 42 36 31 34 30 42 46 41 49 60 68 74 74 74 70 64 63 58 56 53 52 53 52 48 41 37 35 30 29 29 30 32 35 40 43
38 32 24 21 30 53 57 54 49 29 31 16 44 25 28 38 46 56 67 70 70 69 64 60 60 59 60 63 60 58 58 56 52 49 45 43 39 37 37 36 35 37 43 47
36 41 7 14 63 40 43 42 46 42 29 13 13 26 40 41 51 66 67 69 66 61 50 47 46 46 51 58 62 61 59 55 56 54 54 52 48 47 45 42 39 41 46 50
7 14 19 14 1 33 35 23 22 2 8 23 17 31 32 37 50 50 58 61 58 44 41 39 35 39 41 49 56 56 55 57 57 61 60 60 58 56 54 49 43 43 48 53
10 18 14 2 8 15 25 23 19 23 10 14 17 16 16 35 33 34 41 48 44 34 32 34 37 40 43 44 48 50 52 55 58 60 63 65 63 61 59 54 48 47 52 53
7 12 21 4 11 9 7 11 15 26 16 21 25 11 13 37 34 33 34 36 33 32 36 39 41 41 40 38 41 46 53 53 47 51 55 60 62 62 60 57 53 52 54 56
13 12 9 5 11 14 14 7 14 36 39 44 15 16 13 30 40 38 34 30 29 31 33 34 39 41 38 37 45 47 46 48 49 49 53 59 62 63 61 57 57 57 59 60
6 10 20 17 13 16 6 11 25 34 39 49 34 26 34 40 41 36 31 27 20 20 26 37 44 47 38 41 40 44 45 47 50 51 53 59 63 62 60 59 60 60 62 65
17 8 4 41 7 18 36 44 29 37 40 35 39 44 43 40 37 31 27 24 22 26 34 47 51 50 41 38 43 50 54 55 59 59 58 60 62 62 61 61 62 63 64 66
3 4 5 37 12 31 28 35 34 32 34 34 33 41 43 37 34 27 26 29 33 39 44 48 56 60 47 46 49 55 61 64 63 65 62 61 61 62 62 62 63 64 66 65
1 1 8 27 31 42 34 32 38 34 31 33 37 38 41 40 38 36 31 35 36 39 42 45 52 70 64 54 54 60 62 62 61 63 63 60 60 61 63 63 62 64 65 61
6 23 13 32 54 50 51 46 39 35 33 34 35 37 38 43 44 43 41 38 40 42 45 44 50 61 72 69 66 58 55 56 58 58 57 59 61 62 62 62 63 65 64 61
9 31 29 17 23 43 54 50 40 35 35 37 38 39 42 42 41 42 43 43 42 42 44 46 49 50 54 54 52 52 51 52 54 57 58 58 59 61 64 65 66 66 63 62
20 26 27 26 26 33 36 36 39 40 40 45 44 40 39 41 43 44 43 43 45 44 43 45 47 49 48 47 46 45 46 48 50 53 55 58 61 64 65 67 67 62 60 61
31 31 26 25 30 28 29 27 30 35 37 41 44 46 43 46 47 46 47 47 45 42 41 41 42 42 40 38 38 39 41 44 47 52 56 60 64 66 68 67 67 68 58 53
30 38 38 40 43 38 33 34 37 40 38 38 43 47 45 48 50 52 50 45 39 37 35 35 35 34 34 36 37 38 41 46 51 56 60 64 66 67 68 67 67 66 64 49
30 33 36 42 42 44 41 35 35 39 36 37 39 44 50 53 54 51 44 38 35 33 32 31 29 29 31 34 36 38 41 44 49 56 60 63 66 68 68 68 66 63 59 52
33 36 38 35 33 31 32 33 34 36 39 43 47 48 49 50 48 43 39 36 34 30 27 26 26 27 29 31 33 36 41 46 51 56 60 63 64 64 64 64 63 61 56 51
21 25 30 34 36 35 31 30 34 38 43 44 42 40 41 41 40 38 35 32 29 26 24 22 22 23 27 30 33 37 42 46 50 52 54 56 57 57 58 58 59 57 53 49
12 14 16 20 21 23 23 23 25 29 31 31 32 32 32 32 32 30 28 26 23 20 18 20 21 22 24 29 33 35 37 41 43 43 43 45 47 49 51 52 52 51 48 45
9 7 9 10 12 14 15 16 18 20 22 22 20 22 24 26 25 22 21 19 19 19 19 17 17 19 23 26 28 31 32 31 33 34 35 35 36 39 41 41 41 41 42 41
4 1 3 5 6 8 11 12 13 15 18 21 24 25 24 24 22 20 18 16 14 14 15 15 17 20 22 23 25 26 27 28 29 32 31 32 34 37 37 37 38 38 39 39
9 7 6 7 7 8 13 15 16 17 18 21 21 22 21 18 16 14 13 13 15 15 15 16 19 20 21 21 22 25 27 29 31 34 34 35 35 35 35 34 34 35 35 36
8 9 11 13 12 12 14 18 18 19 18 18 17 16 14 13 12 11 12 13 14 15 16 18 19 20 18 20 22 25 27 28 30 32 33 33 33 33 32 33 32 32 33 34
8 9 12 14 14 16 18 20 19 18 16 14 13 12 9 9 10 12 12 12 12 15 17 16 17 18 19 20 22 24 26 28 30 31 32 32 32 33 33 33 33 34 34 35
13 12 12 13 11 11 11 11 10 9 9 8 8 8 9 9 9 9 10 12 13 13 13 13 13 14 16 18 21 24 26 27 29 30 32 33 33 33 34 34 34 34 34 35
9 9 9 9 9 9 8 8 7 6 5 6 7 8 9 9 10 11 11 10 9 9 10 12 14 17 20 22 24 27 28 30 31 34 34 35 35 35 35 35 35 34 34 34
Wind_Direction_500mb
237 249 213 220 205 198 209 221 213 243 226 198 191 196 197 202 195 191 198 202 207 210 213 218 225 229 228 229 228 228 226 226 228 230 237 242 253 264 281 291 299 308 312 312
239 226 224 235 229 208 213 222 234 241 232 194 196 181 186 194 188 196 202 205 208 213 217 221 233 238 238 233 233 231 230 230 231 236 244 250 255 264 273 282 289 301 309 311
233 225 191 268 233 214 217 222 221 220 236 138 171 193 200 194 196 203 203 206 207 209 213 232 233 231 236 238 234 234 233 233 236 243 248 253 258 263 266 272 283 297 307 309
230 118 219 266 277 212 211 198 213 222 165 167 181 198 207 210 208 208 214 207 202 212 219 214 225 234 238 235 233 233 234 237 240 246 252 257 260 263 263 267 278 290 301 307
194 211 313 240 195 173 185 230 194 215 146 143 136 152 208 199 200 210 213 213 217 214 218 227 232 235 237 229 223 228 235 241 246 253 258 259 262 262 262 266 275 284 297 302
150 216 226 238 168 180 158 245 192 181 147 151 148 187 220 206 202 193 185 188 199 216 225 228 229 227 225 223 227 236 243 247 250 258 258 260 261 261 262 265 273 281 293 300
190 219 273 205 152 161 172 237 164 178 175 165 187 210 205 182 181 180 185 193 206 221 229 230 223 221 216 227 236 245 248 253 255 256 260 261 260 260 261 266 273 281 291 298
159 222 248 144 117 180 168 123 167 182 188 191 192 170 165 165 171 181 190 196 209 234 247 234 223 215 232 240 249 247 254 253 251 255 261 262 260 260 263 268 275 281 288 294
197 186 112 168 102 176 158 159 184 184 186 190 175 177 177 179 185 189 198 211 234 251 254 243 228 221 240 252 253 253 255 259 258 256 259 261 260 260 264 269 275 280 286 291
173 115 156 181 163 177 177 198 183 180 181 185 191 191 193 190 191 207 228 233 236 245 248 244 236 228 242 249 253 257 258 259 258 255 255 259 260 262 265 270 274 279 285 288
7 129 111 192 190 190 188 184 178 183 188 199 206 208 211 212 221 233 244 231 239 244 248 249 244 234 240 249 258 260 259 258 257 253 253 259 262 263 265 268 272 279 283 282
193 185 171 197 215 201 206 205 198 202 209 212 216 223 229 231 238 242 240 239 243 245 247 248 247 241 244 252 261 257 255 255 254 253 256 259 261 263 266 271 275 279 280 279
167 184 186 166 197 216 223 222 221 232 239 230 224 228 230 237 243 244 244 244 243 245 249 250 250 251 251 250 251 252 253 254 254 254 258 261 263 265 269 270 272 274 271 271
163 165 197 197 207 218 229 236 239 245 242 232 234 237 243 249 248 246 243 245 250 253 252 250 252 252 250 250 249 247 246 250 252 258 261 263 266 269 270 273 274 270 269 270
201 211 229 233 236 245 240 241 242 242 241 238 239 244 246 251 251 247 248 252 252 249 247 246 245 244 242 241 242 245 250 256 260 263 266 268 269 269 270 270 271 273 270 264
222 231 240 255 266 265 254 251 251 251 246 247 245 244 252 252 246 246 248 247 245 244 239 236 235 238 245 252 256 259 262 264 267 269 271 271 272 273 272 272 271 270 271 268
243 234 242 251 258 264 262 261 267 262 256 253 253 253 253 249 242 240 240 240 235 231 229 233 241 251 256 259 262 264 268 272 274 275 276 276 275 274 274 273 272 270 269 268
251 260 262 266 266 258 260 258 254 248 249 253 254 254 248 242 239 236 232 228 226 225 232 241 248 255 263 269 275 281 284 284 284 283 282 281 279 276 273 272 271 269 268 264
266 262 257 256 259 261 257 248 244 246 247 248 247 243 235 230 228 224 219 218 221 227 234 242 251 262 274 283 291 295 296 296 294 292 290 287 284 281 279 276 274 272 269 264
290 266 256 252 251 252 249 246 242 240 239 239 236 227 220 213 210 209 208 213 222 235 243 258 270 278 288 295 299 301 302 303 304 302 298 293 290 287 285 281 277 273 268 265
299 267 242 237 238 232 229 229 229 228 222 215 211 204 197 194 196 201 208 211 218 230 242 253 271 282 290 294 298 300 303 310 313 312 311 306 301 297 293 287 281 275 271 266
42 68 158 169 180 186 179 182 185 188 185 182 178 177 179 183 188 194 206 219 231 250 263 270 278 285 287 291 293 301 307 309 309 307 307 305 303 301 298 292 287 281 277 273
65 76 92 115 128 147 148 149 155 160 168 166 169 171 173 179 189 200 221 243 258 267 275 282 287 286 285 288 296 299 301 303 303 300 301 301 301 301 298 293 289 284 280 277
76 102 119 125 129 138 154 148 150 151 157 160 163 169 177 190 208 230 246 253 264 269 276 283 282 286 292 296 298 300 301 302 302 303 304 303 302 301 298 295 291 287 283 279
96 112 120 120 134 145 143 142 147 153 162 172 180 186 200 219 236 242 250 260 268 274 281 286 292 296 298 300 301 302 303 305 304 305 303 302 301 299 297 295 292 290 287 285
107 117 123 132 145 148 149 153 161 173 182 195 207 216 223 230 240 250 262 266 270 277 284 289 293 298 301 303 303 304 305 305 306 307 306 305 303 301 298 294 292 290 288 287
125 128 131 145 155 159 170 180 188 200 209 222 240 244 251 253 250 251 252 259 272 285 292 294 295 298 302 305 306 305 306 305 306 305 304 303 302 301 298 297 296 295 293 291
Wind_Speed_850mb
52 29 15 12 35 43 51 62 32 42 36 31 34 30 42 46 41 49 60 68 74 74 74 70 64 63 58 56 53 52 53 52 48 41 37 35 30 29 29 30 32 35 40 43
38 32 24 21 30 53 57 54 49 29 31 16 44 25 28 38 46 56 67 70 70 69 64 60 60 59 60 63 60 58 58 56 52 49 45 43 39 37 37 36 35 37 43 47
36 41 7 14 63 40 43 42 46 42 29 13 13 26 40 41 51 66 67 69 66 61 50 47 46 46 51 58 62 61 59 55 56 54 54 52 48 47 45 42 39 41 46 50
7 14 19 14 1 33 35 23 22 2 8 23 17 31 32 37 50 50 58 61 58 44 41 39 35 39 41 49 56 56 55 57 57 61 60 60 58 56 54 49 43 43 48 53
10 18 14 2 8 15 25 23 19 23 10 14 17 16 16 35 33 34 41 48 44 34 32 34 37 40 43 44 48 50 52 55 58 60 63 65 63 61 59 54 48 47 52 53
7 12 21 4 11 9 7 11 15 26 16 21 25 11 13 37 34 33 34 36 33 32 36 39 41 41 40 38 41 46 53 53 47 51 55 60 62 62 60 57 53 52 54 56
13 12 9 5 11 14 14 7 14 36 39 44 15 16 13 30 40 38 34 30 29 31 33 34 39 41 38 37 45 47 46 48 49 49 53 59 62 63 61 57 57 57 59 60
6 10 20 17 13 16 6 11 25 34 39 49 34 26 34 40 41 36 31 27 20 20 26 37 44 47 38 41 40 44 45 47 50 51 53 59 63 62 60 59 60 60 62 65
17 8 4 41 7 18 36 44 29 37 40 35 39 44 43 40 37 31 27 24 22 26 34 47 51 50 41 38 43 50 54 55 59 59 58 60 62 62 61 61 62 63 64 66
3 4 5 37 12 31 28 35 34 32 34 34 33 41 43 37 34 27 26 29 33 39 44 48 56 60 47 46 49 55 61 64 63 65 62 61 61 62 62 62 63 64 66 65
1 1 8 27 31 42 34 32 38 34 31 33 37 38 41 40 38 36 31 35 36 39 42 45 52 70 64 54 54 60 62 62 61 63 63 60 60 61 63 63 62 64 65 61
6 23 13 32 54 50 51 46 39 35 33 34 35 37 38 43 44 43 41 38 40 42 45 44 50 61 72 69 66 58 55 56 58 58 57 59 61 62 62 62 63 65 64 61
9 31 29 17 23 43 54 50 40 35 35 37 38 39 42 42 41 42 43 43 42 42 44 46 49 50 54 54 52 52 51 52 54 57 58 58 59 61 64 65 66 66 63 62
20 26 27 26 26 33 36 36 39 40 40 45 44 40 39 41 43 44 43 43 45 44 43 45 47 49 48 47 46 45 46 48 50 53 55 58 61 64 65 67 67 62 60 61
31 31 26 25 30 28 29 27 30 35 37 41 44 46 43 46 47 46 47 47 45 42 41 41 42 42 40 38 38 39 41 44 47 52 56 60 64 66 68 67 67 68 58 53
30 38 38 40 43 38 33 34 37 40 38 38 43 47 45 48 50 52 50 45 39 37 35 35 35 34 34 36 37 38 41 46 51 56 60 64 66 67 68 67 67 66 64 49
30 33 36 42 42 44 41 35 35 39 36 37 39 44 50 53 54 51 44 38 35 33 32 31 29 29 31 34 36 38 41 44 49 56 60 63 66 68 68 68 66 63 59 52
33 36 38 35 33 31 32 33 34 36 39 43 47 48 49 50 48 43 39 36 34 30 27 26 26 27 29 31 33 36 41 46 51 56 60 63 64 64 64 64 63 61 56 51
21 25 30 34 36 35 31 30 34 38 43 44 42 40 41 41 40 38 35 32 29 26 24 22 22 23 27 30 33 37 42 46 50 52 54 56 57 57 58 58 59 57 53 49
12 14 16 20 21 23 23 23 25 29 31 31 32 32 32 32 32 30 28 26 23 20 18 20 21 22 24 29 33 35 37 41 43 43 43 45 47 49 51 52 52 51 48 45
9 7 9 10 12 14 15 16 18 20 22 22 20 22 24 26 25 22 21 19 19 19 19 17 17 19 23 26 28 31 32 31 33 34 35 35 36 39 41 41 41 41 42 41
4 1 3 5 6 8 11 12 13 15 18 21 24 25 24 24 22 20 18 16 14 14 15 15 17 20 22 23 25 26 27 28 29 32 31 32 34 37 37 37 38 38 39 39
9 7 6 7 7 8 13 15 16 17 18 21 21 22 21 18 16 14 13 13 15 15 15 16 19 20 21 21 22 25 27 29 31 34 34 35 35 35 35 34 34 35 35 36
8 9 11 13 12 12 14 18 18 19 18 18 17 16 14 13 12 11 12 13 14 15 16 18 19 20 18 20 22 25 27 28 30 32 33 33 33 33 32 33 32 32 33 34
8 9 12 14 14 16 18 20 19 18 16 14 13 12 9 9 10 12 12 12 12 15 17 16 17 18 19 20 22 24 26 28 30 31 32 32 32 33 33 33 33 34 34 35
13 12 12 13 11 11 11 11 10 9 9 8 8 8 9 9 9 9 10 12 13 13 13 13 13 14 16 18 21 24 26 27 29 30 32 33 33 33 34 34 34 34 34 35
9 9 9 9 9 9 8 8 7 6 5 6 7 8 9 9 10 11 11 10 9 9 10 12 14 17 20 22 24 27 28 30 31 34 34 35 35 35 35 35 35 34 34 34
Wind_Direction_850mb
237 249 213 220 205 198 209 221 213 243 226 198 191 196 197 202 195 191 198 202 207 210 213 218 225 229 228 229 228 228 226 226 228 230 237 242 253 264 281 291 299 308 312 312
239 226 224 235 229 208 213 222 234 241 232 194 196 181 186 194 188 196 202 205 208 213 217 221 233 238 238 233 233 231 230 230 231 236 244 250 255 264 273 282 289 301 309 311
233 225 191 268 233 214 217 222 221 220 236 138 171 193 200 194 196 203 203 206 207 209 213 232 233 231 236 238 234 234 233 233 236 243 248 253 258 263 266 272 283 297 307 309
230 118 219 266 277 212 211 198 213 222 165 167 181 198 207 210 208 208 214 207 202 212 219 214 225 234 238 235 233 233 234 237 240 246 252 257 260 263 263 267 278 290 301 307
194 211 313 240 195 173 185 230 194 215 146 143 136 152 208 199 200 210 213 213 217 214 218 227 232 235 237 229 223 228 235 241 246 253 258 259 262 262 262 266 275 284 297 302
150 216 226 238 168 180 158 245 192 181 147 151 148 187 220 206 202 193 185 188 199 216 225 228 229 227 225 223 227 236 243 247 250 258 258 260 261 261 262 265 273 281 293 300
190 219 273 205 152 161 172 237 164 178 175 165 187 210 205 182 181 180 185 193 206 221 229 230 223 221 216 227 236 245 248 253 255 256 260 261 260 260 261 266 273 281 291 298
159 222 248 144 117 180 168 123 167 182 188 191 192 170 165 165 171 181 190 196 209 234 247 234 223 215 232 240 249 247 254 253 251 255 261 262 260 260 263 268 275 281 288 294
197 186 112 168 102 176 158 159 184 184 186 190 175 177 177 179 185 189 198 211 234 251 254 243 228 221 240 252 253 253 255 259 258 256 259 261 260 260 264 269 275 280 286 291
173 115 156 181 163 177 177 198 183 180 181 185 191 191 193 190 191 207 228 233 236 245 248 244 236 228 242 249 253 257 258 259 258 255 255 259 260 262 265 270 274 279 285 288
7 129 111 192 190 190 188 184 178 183 188 199 206 208 211 212 221 233 244 231 239 244 248 249 244 234 240 249 258 260 259 258 257 253 253 259 262 263 265 268 272 279 283 282
193 185 171 197 215 201 206 205 198 202 209 212 216 223 229 231 238 242 240 239 243 245 247 248 247 241 244 252 261 257 255 255 254 253 256 259 261 263 266 271 275 279 280 279
167 184 186 166 197 216 223 222 221 232 239 230 224 228 230 237 243 244 244 244 243 245 249 250 250 251 251 250 251 252 253 254 254 254 258 261 263 265 269 270 272 274 271 271
163 165 197 197 207 218 229 236 239 245 242 232 234 237 243 249 248 246 243 245 250 253 252 250 252 252 250 250 249 247 246 250 252 258 261 263 266 269 270 273 274 270 269 270
201 211 229 233 236 245 240 241 242 242 241 238 239 244 246 251 251 247 248 252 252 249 247 246 245 244 242 241 242 245 250 256 260 263 266 268 269 269 270 270 271 273 270 264
222 231 240 255 266 265 254 251 251 251 246 247 245 244 252 252 246 246 248 247 245 244 239 236 235 238 245 252 256 259 262 264 267 269 271 271 272 273 272 272 271 270 271 268
243 234 242 251 258 264 262 261 267 262 256 253 253 253 253 249 242 240 240 240 235 231 229 233 241 251 256 259 262 264 268 272 274 275 276 276 275 274 274 273 272 270 269 268
251 260 262 266 266 258 260 258 254 248 249 253 254 254 248 242 239 236 232 228 226 225 232 241 248 255 263 269 275 281 284 284 284 283 282 281 279 276 273 272 271 269 268 264
266 262 257 256 259 261 257 248 244 246 247 248 247 243 235 230 228 224 219 218 221 227 234 242 251 262 274 283 291 295 296 296 294 292 290 287 284 281 279 276 274 272 269 264
290 266 256 252 251 252 249 246 242 240 239 239 236 227 220 213 210 209 208 213 222 235 243 258 270 278 288 295 299 301 302 303 304 302 298 293 290 287 285 281 277 273 268 265
299 267 242 237 238 232 229 229 229 228 222 215 211 204 197 194 196 201 208 211 218 230 242 253 271 282 290 294 298 300 303 310 313 312 311 306 301 297 293 287 281 275 271 266
42 68 158 169 180 186 179 182 185 188 185 182 178 177 179 183 188 194 206 219 231 250 263 270 278 285 287 291 293 301 307 309 309 307 307 305 303 301 298 292 287 281 277 273
65 76 92 115 128 147 148 149 155 160 168 166 169 171 173 179 189 200 221 243 258 267 275 282 287 286 285 288 296 299 301 303 303 300 301 301 301 301 298 293 289 284 280 277
76 102 119 125 129 138 154 148 150 151 157 160 163 169 177 190 208 230 246 253 264 269 276 283 282 286 292 296 298 300 301 302 302 303 304 303 302 301 298 295 291 287 283 279
96 112 120 120 134 145 143 142 147 153 162 172 180 186 200 219 236 242 250 260 268 274 281 286 292 296 298 300 301 302 303 305 304 305 303 302 301 299 297 295 292 290 287 285
107 117 123 132 145 148 149 153 161 173 182 195 207 216 223 230 240 250 262 266 270 277 284 289 293 298 301 303 303 304 305 305 306 307 306 305 303 301 298 294 292 290 288 287
125 128 131 145 155 159 170 180 188 200 209 222 240 244 251 253 250 251 252 259 272 285 292 294 295 298 302 305 306 305 306 305 306 305 304 303 302 301 298 297 296 295 293 291